Le nostre stazioni meteo in Italia

Pubblicità
Il mio iltempo24.it
Treviso/S. Angelo, Italia (16099): Temperatura & dewpoint: 19.06.2019 20:00:00 - 25.06.2019 20:00:00 (CEST)Treviso/S. Angelo, Italia (16099): velocità del vento: 19.06.2019 20:00:00 - 25.06.2019 20:00:00 (CEST)Treviso/S. Angelo, Italia (16099): direzione del vento: 19.06.2019 20:00:00 - 25.06.2019 20:00:00 (CEST)Treviso/S. Angelo, Italia (16099): reduced air pressure: 19.06.2019 20:00:00 - 25.06.2019 20:00:00 (CEST)Treviso/S. Angelo, Italia (16099): visibility: 19.06.2019 20:00:00 - 25.06.2019 20:00:00 (CEST)Treviso/S. Angelo, Italia (16099): precipitazioni: 19.06.2019 20:00:00 - 25.06.2019 20:00:00 (CEST)
Data & Tempo tt [°C] td [°C] ff [km/h] ff [kn] dd ppp [hPa] vv [km] rr [mm]
25.06.2019 20:00:00 31,9 20,0 5 3 E 1021,0 50 -
25.06.2019 19:00:00 - - - - - - - -
25.06.2019 18:00:00 - - - - - - - -
25.06.2019 17:00:00 33,4 18,5 5 3 N 1020,8 50 0,0
25.06.2019 16:00:00 - - - - - - - -
25.06.2019 15:00:00 - - - - - - - -
25.06.2019 14:00:00 32,3 18,9 4 2 N 1021,4 10 -
25.06.2019 13:00:00 - - - - - - - -
25.06.2019 12:00:00 - - - - - - - -
25.06.2019 11:00:00 30,4 19,2 5 3 N 1021,3 10 0,0
25.06.2019 10:00:00 - - - - - - - -
25.06.2019 09:00:00 - - - - - - - -
25.06.2019 08:00:00 25,9 20,1 5 3 N 1021,4 10 -
25.06.2019 07:00:00 - - - - - - - -
25.06.2019 06:00:00 - - - - - - - -
25.06.2019 05:00:00 22,0 19,6 4 2 N 1020,6 - 0,0
25.06.2019 04:00:00 - - - - - - - -
25.06.2019 03:00:00 - - - - - - - -
25.06.2019 02:00:00 22,9 19,1 0 0 - 1020,7 - -
25.06.2019 01:00:00 - - - - - - - -
25.06.2019 00:00:00 - - - - - - - -
24.06.2019 23:00:00 26,4 17,5 2 1 N 1020,5 10 0,0
24.06.2019 22:00:00 - - - - - - - -
24.06.2019 21:00:00 - - - - - - - -
24.06.2019 20:00:00 29,3 17,0 5 3 SSE 1018,6 10 -
24.06.2019 19:00:00 - - - - - - - -
24.06.2019 18:00:00 - - - - - - - -
24.06.2019 17:00:00 31,0 18,8 9 5 SSE 1018,2 10 0,0
24.06.2019 16:00:00 - - - - - - - -
24.06.2019 15:00:00 - - - - - - - -
24.06.2019 14:00:00 31,4 18,6 8 4 O 1018,2 25 -
24.06.2019 13:00:00 - - - - - - - -
24.06.2019 12:00:00 - - - - - - - -
24.06.2019 11:00:00 28,4 18,8 5 3 N 1018,6 20 0,0
24.06.2019 10:00:00 - - - - - - - -
24.06.2019 09:00:00 - - - - - - - -
24.06.2019 08:00:00 23,8 18,5 4 2 N 1018,2 20 -
24.06.2019 07:00:00 - - - - - - - -
24.06.2019 06:00:00 - - - - - - - -
24.06.2019 05:00:00 20,4 18,4 4 2 N 1017,7 - 0,0
24.06.2019 04:00:00 - - - - - - - -
24.06.2019 03:00:00 - - - - - - - -
24.06.2019 02:00:00 21,7 19,3 4 2 NE 1017,4 - -
24.06.2019 01:00:00 - - - - - - - -
24.06.2019 00:00:00 - - - - - - - -
23.06.2019 23:00:00 24,3 18,0 2 1 OSO 1016,2 10 0,0
23.06.2019 22:00:00 - - - - - - - -
23.06.2019 21:00:00 - - - - - - - -
23.06.2019 20:00:00 27,7 18,4 9 5 SE 1014,6 10 -
23.06.2019 19:00:00 - - - - - - - -
23.06.2019 18:00:00 - - - - - - - -
23.06.2019 17:00:00 30,0 15,3 4 2 - 1014,2 10 0,0
23.06.2019 16:00:00 - - - - - - - -
23.06.2019 15:00:00 - - - - - - - -
23.06.2019 14:00:00 27,9 15,9 8 4 OSO 1014,5 50 -
23.06.2019 13:00:00 - - - - - - - -
23.06.2019 12:00:00 - - - - - - - -
23.06.2019 11:00:00 25,4 17,8 8 4 SO 1014,3 50 0,0
23.06.2019 10:00:00 - - - - - - - -
23.06.2019 09:00:00 - - - - - - - -
23.06.2019 08:00:00 20,9 17,0 5 3 N 1014,0 50 -
23.06.2019 07:00:00 - - - - - - - -
23.06.2019 06:00:00 - - - - - - - -
23.06.2019 05:00:00 19,2 17,5 5 3 N 1013,7 - 0,0
23.06.2019 04:00:00 - - - - - - - -
23.06.2019 03:00:00 - - - - - - - -
23.06.2019 02:00:00 19,1 17,7 4 2 N 1014,0 - -
23.06.2019 01:00:00 - - - - - - - -
23.06.2019 00:00:00 - - - - - - - -
22.06.2019 23:00:00 20,2 17,3 2 1 - 1013,7 50 0,0
22.06.2019 22:00:00 - - - - - - - -
22.06.2019 21:00:00 - - - - - - - -
22.06.2019 20:00:00 23,0 19,0 5 3 OSO 1012,7 50 -
22.06.2019 19:00:00 - - - - - - - -
22.06.2019 18:00:00 - - - - - - - -
22.06.2019 17:00:00 23,6 17,9 5 3 NE 1014,7 - 0,0
22.06.2019 16:00:00 - - - - - - - -
22.06.2019 15:00:00 - - - - - - - -
22.06.2019 14:00:00 22,2 18,6 16 9 NNE 1015,3 10 -
22.06.2019 13:00:00 - - - - - - - -
22.06.2019 12:00:00 - - - - - - - -
22.06.2019 11:00:00 20,4 17,5 18 10 NNE 1015,0 10 0,0
22.06.2019 10:00:00 - - - - - - - -
22.06.2019 09:00:00 - - - - - - - -
22.06.2019 08:00:00 23,9 15,4 21 11 NO 1014,9 10 -
22.06.2019 07:00:00 - - - - - - - -
22.06.2019 06:00:00 - - - - - - - -
22.06.2019 05:00:00 21,5 16,2 5 3 NNE 1014,9 - 0,0
22.06.2019 04:00:00 - - - - - - - -
22.06.2019 03:00:00 - - - - - - - -
22.06.2019 02:00:00 22,7 17,5 8 4 NNE 1015,5 - -
22.06.2019 01:00:00 - - - - - - - -
22.06.2019 00:00:00 - - - - - - - -
21.06.2019 23:00:00 24,4 17,6 8 4 N 1015,0 10 0,0
21.06.2019 22:00:00 - - - - - - - -
21.06.2019 21:00:00 - - - - - - - -
21.06.2019 20:00:00 28,4 20,3 11 6 SE 1013,8 10 -
21.06.2019 19:00:00 - - - - - - - -
21.06.2019 18:00:00 - - - - - - - -
21.06.2019 17:00:00 30,7 14,8 5 3 - 1013,5 10 0,0
21.06.2019 16:00:00 - - - - - - - -
21.06.2019 15:00:00 - - - - - - - -
21.06.2019 14:00:00 30,7 17,2 15 8 E 1014,3 20 -
21.06.2019 13:00:00 - - - - - - - -
21.06.2019 12:00:00 - - - - - - - -
21.06.2019 11:00:00 27,5 19,0 11 6 ENE 1014,8 20 0,0
21.06.2019 10:00:00 - - - - - - - -
21.06.2019 09:00:00 - - - - - - - -
21.06.2019 08:00:00 23,0 17,0 11 6 NE 1014,4 20 -
21.06.2019 07:00:00 - - - - - - - -
21.06.2019 06:00:00 - - - - - - - -
21.06.2019 05:00:00 20,8 16,6 5 3 NNE 1013,6 - 0,0
21.06.2019 04:00:00 - - - - - - - -
21.06.2019 03:00:00 - - - - - - - -
21.06.2019 02:00:00 21,6 18,8 8 4 NNE 1013,0 - -
21.06.2019 01:00:00 - - - - - - - -
21.06.2019 00:00:00 - - - - - - - -
20.06.2019 23:00:00 22,6 18,2 11 6 NE 1012,3 20 0,0
20.06.2019 22:00:00 - - - - - - - -
20.06.2019 21:00:00 - - - - - - - -
20.06.2019 20:00:00 25,5 20,2 11 6 E 1010,8 20 -
20.06.2019 19:00:00 - - - - - - - -
20.06.2019 18:00:00 - - - - - - - -
20.06.2019 17:00:00 29,8 20,9 11 6 ESE 1009,9 20 0,0
20.06.2019 16:00:00 - - - - - - - -
20.06.2019 15:00:00 - - - - - - - -
20.06.2019 14:00:00 30,1 19,4 4 2 NE 1011,6 50 -
20.06.2019 13:00:00 - - - - - - - -
20.06.2019 12:00:00 - - - - - - - -
20.06.2019 11:00:00 27,4 21,3 5 3 E 1012,0 50 0,0
20.06.2019 10:00:00 - - - - - - - -
20.06.2019 09:00:00 - - - - - - - -
20.06.2019 08:00:00 23,8 19,7 5 3 NNE 1012,0 - -
20.06.2019 07:00:00 - - - - - - - -
20.06.2019 06:00:00 - - - - - - - -
20.06.2019 05:00:00 21,1 19,4 4 2 N 1011,5 - 0,0
20.06.2019 04:00:00 - - - - - - - -
20.06.2019 03:00:00 - - - - - - - -
20.06.2019 02:00:00 22,5 19,3 5 3 NNE 1012,1 - -
20.06.2019 01:00:00 - - - - - - - -
20.06.2019 00:00:00 - - - - - - - -
19.06.2019 23:00:00 23,6 21,3 5 3 N 1011,9 - 0,0
19.06.2019 22:00:00 - - - - - - - -
19.06.2019 21:00:00 - - - - - - - -
19.06.2019 20:00:00 25,0 20,7 11 6 NNE 1010,9 - -

tt = Temperatura
td = dewpoint
ff = velocità del vento
dd = direzione del vento
ppp = reduced air pressure
vv = visibility
rr = precipitazioni

Stazioni seguenti

WeatherPro
AMSI
MeteoEarth